sat.trackr.live / text

‹ back to catalog

QIANFAN-90

NORAD 63176 · 2025-046T

PAYLOAD ACTIVE UNKNOWN

§ Identity

Operator
Country
PRC
Launch date
2025-03-11
Launch site
WSC
Launch vehicle
Mass (kg)
RCS (m²)

External: N2YO · Heavens-Above · Gunter

§ Orbital elements

Epoch: 2026-09-22T20:42:41.660352Z

Period
106.59 min
Inclination
88.9642°
Eccentricity
0.0014329
Mean motion
13.51019920 rev/d
Perigee alt
1,057.8 km
Apogee alt
1,079.2 km
Semi-major
7,446.6 km
B*
1.6482e-5
RAAN
290.5112°
Arg perigee
31.2608°
Mean anomaly
328.9392°
Rev number
8,578

§ Raw data

QIANFAN-901 63176U 25046T   26265.86298218  .00000023  00000+0  16482-4 0  99942 63176  88.9642 290.5112 0014329  31.2608 328.9392 13.51019920 85786

JSON: /api/v1/satellites/63176 · /tle

For live sub-satellite position, see the globe view (requires WebGL).

§ Visibility from observer

Set your observer location to see the next 7 days of passes ≥ 10°. The values pass through the URL so the page stays shareable.

No JS? Fill the form by hand. The geolocation button needs JavaScript.